Showing default

ITASAT, 43786

Orbit data source: Space-Track

ITASAT, 43786 is a payload satellite owned by ITA (BR) in SSO that was launched on Mon, 03 Dec 2018 UTC via an FALCON 9 launch vehicle from the Air Force Western Test Range (AFWTR). Payload-class satellites include a variety of spacecraft equipped with specific instruments for various scientific and technological missions. These include communications satellites like Starlink; space stations such as the ISS; scientific satellites like the Hubble; Earth observation satellites from companies like Planet Labs, Umbra, and HawkEye 360; GPS; miniature CubeSats for education and research; and military/defense satellites.

Loading next visibility...
Identifier
43786, 2018-099AE
Orbit
SSO
Last TLE update
8 hours ago
Origin
Manufacturer
ITA
Mission
Operational Civil Technology
Bus & Motor
CUBESAT 6U, Unknown motor
Mass
8 kg wet, 8 kg dry
Launch date (UTC)
2018-12-03 (7 years ago)
Launch vehicle
FALCON 9
Launch site
Air Force Western Test Range (AFWTR)
Object type
Payload
Rocket body
Debris
Shape & HBR
Box, 0.3 m
Radar Cross Section
0.080 m², Medium (>0.1 m² and < 1m²)

Expand to show TLE details & history

TLE from 8 hours ago
0 ITASAT
1 43786U 18099AE  25186.60219372  .00005023  00000-0  28577-3 0  9999
2 43786  97.4555 240.3752 0015954 114.7880 245.5013 15.13196480360390
Epoch: 2025-07-05T14:27Z
TLE epoch observation values (Epoch: 2025-07-05T14:27:09.537Z)
Latitude
-0.00003°
Longitude
99.74758°
Altitude
534.122 km
Speed
7.593 km/s
True Right ascension
16h 01m 30s
True Declination
0° 00' 00"
Sunlit
Object was in full shadow at epoch
Visualization orbit readout
Latitude
32.03295°
Longitude
95.40609°
Altitude
528.999 km
Speed
7.602 km/s
Apparent Right ascension
18h 41m 19s
Apparent Declination
-3° 32' 45"
Sunlit
Object is in daylight
Visualization observer readout
Local Sidereal Time
10:27:59
Azimuth
69.941° E
Elevation
-27.409°
Doppler factor
1
Orbital elements
Apogee altitude
534.447 km
Perigee altitude
512.426 km
Semi-major axis
6,901.573 km
Eccentricity
0.0016
Inclination
97.4555°
RAAN
240.3752°
Arg. of periapsis
114.788°
True anomaly
Unknown
Mean anomaly
245.5013°
Eccentric anomaly
Unknown
Mean motion
3.78548 °/min
Orbital period
95.1 mins
BSTAR
0.00028577
Loading maneuver chart data...
Loading SW <> Apogee altitude chart data...
Loading historical data...
Loading historical data...
Loading historical data...
Loading historical data...
Loading historical data...
Loading historical data...
Loading historical data...

ITASAT Visibility forecast

Observer location: undefined°, undefined°

Span
Click to sort rows by Start time (UTC) header in descending order
Start Az.
Max El. time (UTC)
Max El. Az.
Max El.
End time (UTC)
End Az.
6 mins2025-07-06 03:16:46.983Z144.634° SSE2025-07-06 03:19:46.983Z77.577° E35.66°2025-07-06 03:22:46.983Z4.152° NNE
5 mins2025-07-06 16:25:46.983Z17.842° NNE2025-07-06 16:27:46.983Z142.148° SSE44.235°2025-07-06 16:30:46.983Z188.816° SSW
|